ATLAS 5 CENTAUR DEB, 44684

Orbit data source: Space-Track

ATLAS 5 CENTAUR DEB, 44684 is space debris in HEO originally from a launch on Wed, 17 Oct 2018 UTC launched from the Air Force Eastern Test Range (AFETR). Debris objects in space refer to the collection of defunct objects orbiting the Earth. Examples of debris include non-operational satellites, rocket bodies, and fragments generated from explosions, collisions, or faulty payload assembly.

Loading next visibility...
Identifier
44684, 2018-079AW
Orbit
HEO
Country
Flag of USUS
Related business
Flag of USUnited Launch Alliance/Lockheed Martin (US)
Manufacturer
ULA Decatur
Mission
Spacecraft
Bus & Motor
Unknown
Mass
Unknown
Launch date (UTC)
2018-10-17 (7 years ago)
Launch vehicle
Unknown
Launch site
Air Force Eastern Test Range (AFETR)
Object type
Payload
Rocket body
Debris
Shape & HBR
Unknown shape, 1.1 m
Radar Cross Section
RCS unknown

Expand to show TLE details & history
Last TLE update: 3 days ago

TLE from 3 days ago
0 ATLAS 5 CENTAUR DEB
1 44684U 18079AW  25299.44237138 -.00000107  00000-0  00000-0 0  9999
2 44684  13.0408  54.3231 4645831 279.0885  32.9883  1.83127528 42783
Epoch: 2025-10-26T10:37Z
TLE epoch observation values (Epoch: 2025-10-26T10:37:00.887Z)
Latitude
Longitude
-140.06045°
Altitude
14,229.745 km
Speed
4.956 km/s
True Right ascension
03h 37m 00s
True Declination
0° 00' 00"
Sunlit
Object was in daylight at epoch
Visualization orbit readout
Latitude
Unknown
Longitude
Unknown
Altitude
Unknown
Speed
Unknown
Apparent Right ascension
Unknown
Apparent Declination
Unknown
Sunlit
N/A
Visualization observer readout
Local Sidereal Time
06:37:13
Azimuth
Unknown
Elevation
Unknown
Doppler factor
Unknown
Orbital elements
Apogee altitude
34,956.328 km
Perigee altitude
8,732.764 km
Semi-major axis
28,222.683 km
Eccentricity
0.46458
Inclination
13.0408°
RAAN
54.3231°
Arg. of periapsis
279.0885°
True anomaly
81.11337°
Mean anomaly
32.9883°
Eccentric anomaly
54.71747°
Mean motion
0.45777 °/min
Orbital period
786.42 mins
BSTAR
0
Loading maneuver chart data...
Computing Atmospheric mass density...

Documentation

Showing up to 5 results
|